Time,TemperatureF,DewpointF,PressureIn,WindDirection,WindDirectionDegrees,WindSpeedMPH,WindSpeedGustMPH,Humidity,HourlyPrecipIn,Conditions,Clouds,dailyrainin,SoftwareType,DateUTC
2013-08-17 00:10:00,65.5,62.0,30.09,SE,130,0.0,1.0,87,0.00,,,0.00,weatherlink.com 1.10,2013-08-17 04:10:00,
2013-08-17 00:25:00,65.5,62.0,30.09,SE,130,0.0,0.0,87,0.00,,,0.00,weatherlink.com 1.10,2013-08-17 04:25:00,
2013-08-17 00:40:00,65.5,62.0,30.09,SE,130,0.0,0.0,87,0.00,,,0.00,weatherlink.com 1.10,2013-08-17 04:40:00,
2013-08-17 00:55:00,65.4,62.0,30.09,SE,130,0.0,0.0,88,0.00,,,0.00,weatherlink.com 1.10,2013-08-17 04:55:00,
2013-08-17 01:10:00,65.1,62.0,30.09,SE,130,0.0,0.0,88,0.00,,,0.00,weatherlink.com 1.10,2013-08-17 05:10:00,
2013-08-17 01:25:00,65.0,62.0,30.09,SE,130,0.0,0.0,91,0.00,,,0.00,weatherlink.com 1.10,2013-08-17 05:25:00,
2013-08-17 01:40:00,64.7,62.0,30.09,SE,130,0.0,0.0,91,0.00,,,0.00,weatherlink.com 1.10,2013-08-17 05:40:00,
2013-08-17 01:55:00,64.5,62.0,30.09,SE,130,0.0,0.0,91,0.00,,,0.00,weatherlink.com 1.10,2013-08-17 05:55:00,
2013-08-17 02:10:00,64.6,62.0,30.09,South,191,0.0,1.0,91,0.00,,,0.00,weatherlink.com 1.10,2013-08-17 06:10:00,
2013-08-17 02:25:00,64.7,62.0,30.08,South,191,0.0,0.0,91,0.00,,,0.00,weatherlink.com 1.10,2013-08-17 06:25:00,
2013-08-17 02:40:00,64.8,62.0,30.08,South,190,0.0,0.0,90,0.00,,,0.00,weatherlink.com 1.10,2013-08-17 06:40:00,
2013-08-17 02:55:00,64.9,62.0,30.08,SSE,165,0.0,1.0,90,0.00,,,0.00,weatherlink.com 1.10,2013-08-17 06:55:00,
2013-08-17 03:10:00,64.9,62.0,30.08,South,178,0.0,2.0,89,0.00,,,0.00,weatherlink.com 1.10,2013-08-17 07:10:00,
2013-08-17 03:25:00,65.0,62.0,30.07,SSE,166,0.0,1.0,89,0.00,,,0.00,weatherlink.com 1.10,2013-08-17 07:25:00,
2013-08-17 03:40:00,65.0,61.0,30.07,South,190,0.0,0.0,88,0.00,,,0.00,weatherlink.com 1.10,2013-08-17 07:40:00,
2013-08-17 03:55:00,65.0,61.0,30.07,SW,227,0.0,1.0,87,0.00,,,0.00,weatherlink.com 1.10,2013-08-17 07:55:00,
2013-08-17 04:10:00,65.0,61.0,30.06,South,189,0.0,2.0,87,0.00,,,0.00,weatherlink.com 1.10,2013-08-17 08:10:00,
2013-08-17 04:25:00,64.9,61.0,30.06,ENE,65,0.0,1.0,87,0.00,,,0.00,weatherlink.com 1.10,2013-08-17 08:25:00,
2013-08-17 04:40:00,65.0,61.0,30.06,SSE,165,0.0,1.0,87,0.00,,,0.00,weatherlink.com 1.10,2013-08-17 08:40:00,
2013-08-17 04:55:00,64.9,61.0,30.06,East,84,0.0,2.0,87,0.00,,,0.00,weatherlink.com 1.10,2013-08-17 08:55:00,
2013-08-17 05:10:00,64.9,61.0,30.06,WSW,256,0.0,2.0,88,0.00,,,0.00,weatherlink.com 1.10,2013-08-17 09:10:00,
2013-08-17 05:25:00,64.9,61.0,30.06,South,182,0.0,3.0,87,0.00,,,0.00,weatherlink.com 1.10,2013-08-17 09:25:00,
2013-08-17 05:40:00,64.9,61.0,30.06,ESE,107,0.0,1.0,88,0.00,,,0.00,weatherlink.com 1.10,2013-08-17 09:40:00,
2013-08-17 05:55:00,64.8,61.0,30.06,SW,236,0.0,3.0,87,0.00,,,0.00,weatherlink.com 1.10,2013-08-17 09:55:00,
2013-08-17 06:10:00,64.8,61.0,30.06,NW,307,0.0,2.0,87,0.00,,,0.00,weatherlink.com 1.10,2013-08-17 10:10:00,
2013-08-17 06:25:00,64.7,61.0,30.06,North,350,0.0,3.0,88,0.00,,,0.00,weatherlink.com 1.10,2013-08-17 10:25:00,
2013-08-17 06:40:00,64.7,61.0,30.06,NE,49,0.0,2.0,88,0.00,,,0.00,weatherlink.com 1.10,2013-08-17 10:40:00,
2013-08-17 06:55:00,64.6,61.0,30.07,SE,140,0.0,1.0,89,0.00,,,0.00,weatherlink.com 1.10,2013-08-17 10:55:00,
2013-08-17 07:10:00,64.6,61.0,30.07,South,185,1.0,2.0,89,0.00,,,0.00,weatherlink.com 1.10,2013-08-17 11:10:00,
2013-08-17 07:25:00,64.5,61.0,30.08,East,82,0.0,2.0,88,0.00,,,0.00,weatherlink.com 1.10,2013-08-17 11:25:00,
2013-08-17 07:40:00,64.5,61.0,30.09,SSE,166,0.0,0.0,89,0.00,,,0.00,weatherlink.com 1.10,2013-08-17 11:40:00,
2013-08-17 07:55:00,64.5,61.0,30.09,SE,142,0.0,0.0,89,0.00,,,0.00,weatherlink.com 1.10,2013-08-17 11:55:00,
2013-08-17 08:10:00,64.5,61.0,30.09,SSW,200,0.0,2.0,89,0.00,,,0.00,weatherlink.com 1.10,2013-08-17 12:10:00,
2013-08-17 08:25:00,64.5,61.0,30.10,SSW,200,0.0,0.0,89,0.00,,,0.00,weatherlink.com 1.10,2013-08-17 12:25:00,
2013-08-17 08:40:00,64.6,62.0,30.09,SSW,200,0.0,0.0,90,0.00,,,0.00,weatherlink.com 1.10,2013-08-17 12:40:00,
2013-08-17 08:55:00,64.8,62.0,30.09,East,91,0.0,0.0,91,0.00,,,0.00,weatherlink.com 1.10,2013-08-17 12:55:00,
2013-08-17 09:10:00,65.1,62.0,30.10,East,91,0.0,0.0,90,0.00,,,0.00,weatherlink.com 1.10,2013-08-17 13:10:00,
2013-08-17 09:25:00,65.4,63.0,30.10,East,91,0.0,0.0,90,0.00,,,0.00,weatherlink.com 1.10,2013-08-17 13:25:00,
2013-08-17 09:40:00,65.7,62.0,30.11,East,101,0.0,0.0,89,0.00,,,0.00,weatherlink.com 1.10,2013-08-17 13:40:00,
2013-08-17 09:55:00,65.7,62.0,30.12,East,101,0.0,1.0,89,0.00,,,0.00,weatherlink.com 1.10,2013-08-17 13:55:00,
2013-08-17 10:10:00,65.9,63.0,30.12,South,172,0.0,0.0,89,0.00,,,0.00,weatherlink.com 1.10,2013-08-17 14:10:00,
2013-08-17 10:25:00,66.2,63.0,30.12,South,172,0.0,1.0,89,0.00,,,0.00,weatherlink.com 1.10,2013-08-17 14:25:00,
2013-08-17 10:40:00,66.8,63.0,30.12,ESE,109,0.0,1.0,88,0.00,,,0.00,weatherlink.com 1.10,2013-08-17 14:40:00,
2013-08-17 10:55:00,67.2,64.0,30.12,ENE,73,0.0,1.0,88,0.00,,,0.00,weatherlink.com 1.10,2013-08-17 14:55:00,
2013-08-17 11:10:00,67.6,64.0,30.12,East,100,0.0,1.0,87,0.00,,,0.00,weatherlink.com 1.10,2013-08-17 15:10:00,
2013-08-17 11:26:00,68.4,64.0,30.12,East,82,0.0,2.0,85,0.00,,,0.00,weatherlink.com 1.10,2013-08-17 15:26:00,
2013-08-17 11:41:00,69.5,65.0,30.12,East,96,0.0,3.0,84,0.00,,,0.00,weatherlink.com 1.10,2013-08-17 15:41:00,
2013-08-17 11:56:00,69.8,64.0,30.11,SE,134,0.0,3.0,82,0.00,,,0.00,weatherlink.com 1.10,2013-08-17 15:56:00,
2013-08-17 12:11:00,70.7,64.0,30.11,SSW,207,0.0,4.0,80,0.00,,,0.00,weatherlink.com 1.10,2013-08-17 16:11:00,
2013-08-17 12:26:00,70.4,65.0,30.11,SW,222,0.0,3.0,82,0.00,,,0.00,weatherlink.com 1.10,2013-08-17 16:26:00,
2013-08-17 12:41:00,70.2,64.0,30.10,ENE,77,0.0,3.0,81,0.00,,,0.00,weatherlink.com 1.10,2013-08-17 16:41:00,
2013-08-17 12:56:00,69.9,65.0,30.10,East,91,0.0,1.0,83,0.00,,,0.00,weatherlink.com 1.10,2013-08-17 16:56:00,
2013-08-17 13:11:00,70.5,64.0,30.10,ENE,59,0.0,2.0,81,0.00,,,0.00,weatherlink.com 1.10,2013-08-17 17:11:00,
2013-08-17 13:26:00,70.6,65.0,30.10,SW,220,0.0,0.0,81,0.00,,,0.00,weatherlink.com 1.10,2013-08-17 17:26:00,
2013-08-17 13:42:00,70.6,65.0,30.09,NE,51,0.0,4.0,81,0.00,,,0.00,weatherlink.com 1.10,2013-08-17 17:42:00,
2013-08-17 13:56:00,71.1,64.0,30.09,NNW,338,0.0,4.0,79,0.00,,,0.00,weatherlink.com 1.10,2013-08-17 17:56:00,
2013-08-17 14:11:00,70.6,64.0,30.09,NNW,337,0.0,3.0,80,0.00,,,0.00,weatherlink.com 1.10,2013-08-17 18:11:00,
2013-08-17 14:26:00,70.1,64.0,30.09,ESE,123,0.0,6.0,81,0.00,,,0.00,weatherlink.com 1.10,2013-08-17 18:26:00,
2013-08-17 14:41:00,70.2,64.0,30.09,South,187,0.0,1.0,81,0.00,,,0.00,weatherlink.com 1.10,2013-08-17 18:41:00,
2013-08-17 14:56:00,70.0,64.0,30.09,South,188,0.0,3.0,82,0.00,,,0.00,weatherlink.com 1.10,2013-08-17 18:56:00,
2013-08-17 15:11:00,69.6,64.0,30.09,South,188,0.0,0.0,82,0.00,,,0.00,weatherlink.com 1.10,2013-08-17 19:11:00,
2013-08-17 15:26:00,69.1,64.0,30.08,South,176,0.0,1.0,84,0.00,,,0.00,weatherlink.com 1.10,2013-08-17 19:26:00,
2013-08-17 15:41:00,68.7,64.0,30.07,South,175,0.0,0.0,84,0.00,,,0.00,weatherlink.com 1.10,2013-08-17 19:41:00,
2013-08-17 15:57:00,68.6,64.0,30.07,South,176,0.0,1.0,85,0.00,,,0.00,weatherlink.com 1.10,2013-08-17 19:57:00,
2013-08-17 16:11:00,68.7,64.0,30.07,South,176,0.0,1.0,85,0.00,,,0.00,weatherlink.com 1.10,2013-08-17 20:11:00,
2013-08-17 16:26:00,68.6,64.0,30.07,South,176,0.0,0.0,85,0.00,,,0.00,weatherlink.com 1.10,2013-08-17 20:26:00,
2013-08-17 16:41:00,68.6,64.0,30.07,WSW,245,0.0,2.0,86,0.00,,,0.00,weatherlink.com 1.10,2013-08-17 20:41:00,
2013-08-17 16:56:00,68.6,64.0,30.07,South,173,0.0,2.0,85,0.00,,,0.00,weatherlink.com 1.10,2013-08-17 20:56:00,
2013-08-17 17:11:00,68.3,64.0,30.08,NNE,32,0.0,1.0,86,0.00,,,0.00,weatherlink.com 1.10,2013-08-17 21:11:00,
2013-08-17 17:26:00,68.2,64.0,30.08,SE,136,0.0,1.0,87,0.00,,,0.00,weatherlink.com 1.10,2013-08-17 21:26:00,
2013-08-17 17:41:00,68.3,64.0,30.08,South,190,0.0,2.0,86,0.00,,,0.00,weatherlink.com 1.10,2013-08-17 21:41:00,
2013-08-17 17:56:00,68.1,64.0,30.08,South,169,0.0,2.0,87,0.00,,,0.00,weatherlink.com 1.10,2013-08-17 21:56:00,
2013-08-17 18:11:00,67.8,64.0,30.07,South,185,0.0,2.0,87,0.00,,,0.00,weatherlink.com 1.10,2013-08-17 22:11:00,
2013-08-17 18:26:00,67.4,64.0,30.08,ESE,119,0.0,2.0,88,0.00,,,0.00,weatherlink.com 1.10,2013-08-17 22:26:00,
2013-08-17 18:41:00,67.1,64.0,30.08,East,94,0.0,2.0,89,0.00,,,0.00,weatherlink.com 1.10,2013-08-17 22:41:00,
2013-08-17 18:56:00,66.5,64.0,30.08,South,169,0.0,3.0,91,0.01,,,0.01,weatherlink.com 1.10,2013-08-17 22:56:00,
2013-08-17 19:11:00,65.8,64.0,30.07,SSE,161,0.0,1.0,92,0.01,,,0.01,weatherlink.com 1.10,2013-08-17 23:11:00,
2013-08-17 19:26:00,65.3,64.0,30.08,SW,219,0.0,2.0,94,0.01,,,0.01,weatherlink.com 1.10,2013-08-17 23:26:00,
2013-08-17 19:41:00,65.0,63.0,30.08,NNE,26,0.0,2.0,94,0.01,,,0.01,weatherlink.com 1.10,2013-08-17 23:41:00,
2013-08-17 19:56:00,64.8,63.0,30.08,NNE,14,0.0,1.0,95,0.00,,,0.01,weatherlink.com 1.10,2013-08-17 23:56:00,
2013-08-17 20:11:00,64.7,63.0,30.08,West,267,0.0,2.0,95,0.00,,,0.01,weatherlink.com 1.10,2013-08-18 00:11:00,
2013-08-17 20:26:00,64.5,63.0,30.09,South,186,0.0,0.0,95,0.02,,,0.03,weatherlink.com 1.10,2013-08-18 00:26:00,
2013-08-17 20:41:00,64.3,63.0,30.09,SSW,207,0.0,2.0,95,0.02,,,0.03,weatherlink.com 1.10,2013-08-18 00:41:00,
2013-08-17 20:56:00,64.0,63.0,30.09,SW,224,5.0,5.0,95,0.03,,,0.04,weatherlink.com 1.10,2013-08-18 00:56:00,
2013-08-17 21:11:00,63.8,63.0,30.09,WNW,293,0.0,2.0,96,0.04,,,0.05,weatherlink.com 1.10,2013-08-18 01:11:00,
2013-08-17 21:26:00,63.7,63.0,30.09,East,87,0.0,2.0,96,0.03,,,0.06,weatherlink.com 1.10,2013-08-18 01:26:00,
2013-08-17 21:41:00,63.6,63.0,30.09,SW,230,0.0,1.0,96,0.03,,,0.06,weatherlink.com 1.10,2013-08-18 01:41:00,
2013-08-17 21:56:00,63.7,63.0,30.10,SW,231,0.0,1.0,96,0.02,,,0.06,weatherlink.com 1.10,2013-08-18 01:56:00,
2013-08-17 22:11:00,63.7,63.0,30.10,South,179,0.0,1.0,97,0.01,,,0.06,weatherlink.com 1.10,2013-08-18 02:11:00,
2013-08-17 22:26:00,63.6,63.0,30.10,ESE,119,0.0,0.0,97,0.00,,,0.06,weatherlink.com 1.10,2013-08-18 02:26:00,
2013-08-17 22:41:00,63.6,63.0,30.11,East,89,1.0,1.0,97,0.00,,,0.06,weatherlink.com 1.10,2013-08-18 02:41:00,
2013-08-17 22:56:00,63.6,63.0,30.11,SW,229,0.0,2.0,97,0.00,,,0.06,weatherlink.com 1.10,2013-08-18 02:56:00,
2013-08-17 23:11:00,63.6,63.0,30.11,SSE,167,0.0,2.0,97,0.00,,,0.06,weatherlink.com 1.10,2013-08-18 03:11:00,
2013-08-17 23:26:00,63.6,63.0,30.11,SW,221,0.0,3.0,97,0.00,,,0.06,weatherlink.com 1.10,2013-08-18 03:26:00,
2013-08-17 23:41:00,63.6,63.0,30.11,ESE,105,0.0,1.0,97,0.00,,,0.06,weatherlink.com 1.10,2013-08-18 03:41:00,
2013-08-17 23:56:00,63.7,63.0,30.11,NE,55,0.0,0.0,97,0.00,,,0.06,weatherlink.com 1.10,2013-08-18 03:56:00,